Location: Bodest
(46.3000°N, 22.5667°E)
Time: 13:23:37
(UTC+00:00)

Cosmos 1844 Rocket - Pass Details

Date: 02 June 2022
Orbit: 826 x 843 km, 71.0° (Epoch: 28 June)

Event Time Altitude Azimuth Distance (km) Brightness Sun altitude
Rises 20:18:46 0° 329° (NNW) 3,379 7.8 -15.5°
Reaches altitude 10° 20:21:16 10° 324° (NW) 2,440 6.5 -15.7°
Maximum altitude 20:26:37 49° 251° (WSW) 1,061 3.3 -16.1°
Enters shadow 20:30:10 20° 185° (S) 1,800 3.9 -16.4°
